Lapse_Rate
2.6 3.2 3.8 4.0 4.2 4.0 4.5 4.4 4.3 4.1 3.6 3.2 2.7 2.1 1.6 1.3 1.0 0.8 0.5 0.1 -0.3 -0.3 -0.3 0.1 0.4 0.2 0.6 4.9 3.9 5.8 1.6 0.8 2.9 5.2 5.5 6.1 6.2 5.7 6.5 6.1 5.3 6.5 6.5 6.4 6.0 5.8 5.9
2.2 2.2 2.2 3.3 4.1 4.3 4.1 4.2 4.3 4.3 3.9 3.6 3.0 2.5 1.8 1.6 1.2 1.0 0.5 0.2 -0.2 -0.3 -0.2 0.3 0.5 0.6 1.6 6.4 6.2 6.0 4.6 3.9 5.4 5.5 5.9 6.1 6.2 6.1 5.8 5.8 6.4 5.7 5.5 5.5 5.5 6.3 6.4
2.0 2.1 2.1 2.1 3.2 4.3 4.4 4.0 4.3 4.3 4.2 3.8 3.3 2.8 2.3 1.7 1.4 1.0 0.5 0.1 -0.1 -0.3 -0.1 0.4 0.6 2.3 4.7 2.8 5.7 5.8 5.8 7.3 6.5 5.9 6.0 6.2 6.4 6.2 5.3 6.5 5.1 5.5 6.5 6.5 6.4 6.2 6.5
1.9 1.9 2.0 2.0 2.0 3.4 4.5 4.3 3.8 4.2 4.4 4.2 3.6 3.0 2.4 1.7 1.4 1.0 0.6 0.1 -0.1 -0.2 0.1 0.5 0.6 2.6 3.5 5.3 5.5 4.8 5.4 6.8 7.3 6.9 7.0 7.1 6.7 6.1 6.4 5.3 5.6 6.5 6.5 6.5 6.5 6.4 6.3
1.8 1.9 1.9 1.8 1.9 2.2 3.4 4.6 4.0 4.0 4.7 4.5 3.9 3.3 2.6 1.7 1.4 1.0 0.5 0.1 -0.2 -0.2 0.2 0.6 1.2 3.3 5.5 6.7 6.0 5.9 6.3 7.1 7.3 8.1 8.2 8.6 7.7 6.4 5.9 6.5 6.5 6.5 6.5 6.5 6.5 6.5 6.5
2.6 1.8 1.9 2.0 1.9 2.0 2.5 4.0 4.5 4.0 4.5 4.5 4.2 3.4 2.9 1.9 1.5 1.1 0.5 0.3 0.2 -0.4 1.4 3.4 5.0 6.0 4.7 5.5 6.9 6.8 6.5 7.1 7.6 6.9 7.3 7.1 5.5 6.5 6.5 6.5 6.5 6.5 6.5 6.5 6.5 6.5 6.5
5.1 3.1 2.0 2.2 2.3 2.2 2.4 3.2 4.5 4.2 4.2 4.7 4.3 3.7 3.2 2.5 1.8 1.3 0.2 1.7 3.0 3.6 4.4 5.1 5.2 5.4 6.4 7.7 8.1 7.8 7.7 7.0 7.1 6.2 6.5 6.0 6.5 6.5 6.5 6.5 6.5 6.5 6.5 6.5 6.5 6.5 6.5
7.9 6.9 4.7 2.7 3.2 2.9 2.8 2.7 3.7 4.5 4.3 4.5 4.3 3.9 3.4 2.9 2.1 1.4 0.1 3.1 5.7 7.1 5.9 6.7 6.1 7.3 7.3 7.6 6.9 6.4 7.1 6.1 5.7 6.5 6.4 6.5 6.5 6.5 6.5 6.5 6.5 6.5 6.5 6.5 6.5 6.5 6.5
8.0 7.8 7.7 5.7 4.0 3.7 3.5 3.5 2.8 4.2 4.4 4.3 4.2 4.2 3.5 3.1 2.0 0.2 2.0 3.5 5.1 5.6 6.0 7.0 6.9 7.1 6.6 7.3 6.6 6.3 6.9 5.9 6.4 6.5 6.5 6.5 6.5 6.5 6.5 6.5 6.5 6.5 6.5 6.5 6.5 6.5 6.5
8.8 8.3 7.9 8.0 6.7 5.0 4.8 4.5 3.5 3.8 4.6 4.5 3.8 4.3 3.7 2.8 2.3 4.0 3.1 4.9 4.1 5.4 6.5 6.5 6.6 7.0 7.4 7.1 6.2 6.8 7.0 5.8 6.4 6.5 6.5 6.5 6.5 6.5 6.5 6.5 6.5 6.5 6.5 6.5 6.5 6.5 6.5
8.8 8.6 8.1 8.1 7.9 7.0 5.1 4.8 4.2 4.3 4.7 4.5 3.8 4.0 3.7 3.6 1.5 4.2 6.3 4.8 5.2 5.9 6.5 6.5 6.5 7.1 6.9 6.2 6.3 6.4 6.6 6.1 6.5 6.5 6.5 6.5 6.5 6.5 6.5 6.5 6.5 6.5 6.5 6.5 6.5 6.5 6.5
8.4 8.3 8.6 8.2 8.2 7.9 6.8 5.6 4.5 4.5 5.1 4.5 4.3 4.0 3.8 2.5 1.9 2.1 3.3 3.9 5.6 6.5 6.5 6.5 6.3 6.4 6.4 6.1 6.3 6.6 6.2 7.1 6.0 6.5 6.5 6.5 6.0 6.5 6.5 6.5 6.5 6.5 6.5 6.5 6.5 6.5 6.5
8.6 8.0 8.2 8.3 8.3 7.9 8.1 7.2 5.9 4.5 5.1 4.5 3.9 4.1 3.0 6.4 5.0 6.2 4.5 4.5 6.5 6.5 6.5 6.5 6.5 6.5 6.5 6.5 6.5 6.5 6.5 6.5 6.5 6.5 6.5 6.5 6.5 6.5 6.2 6.5 6.5 6.5 6.5 6.5 6.5 6.5 6.5
8.9 8.8 8.1 8.6 8.2 8.4 8.1 7.7 6.7 5.5 5.4 4.3 3.8 4.0 3.1 4.9 5.2 4.8 5.6 6.4 6.5 6.5 6.5 6.5 6.5 6.5 6.5 6.5 6.5 6.5 6.5 6.5 6.5 6.5 6.5 6.5 6.5 6.5 6.5 6.5 6.5 6.5 6.5 6.5 6.5 6.5 6.5
8.6 8.5 8.6 8.2 8.1 8.2 8.0 7.9 7.2 5.6 5.7 4.4 3.1 4.0 4.6 3.6 3.9 4.7 6.2 6.5 6.5 6.5 6.5 6.5 6.5 6.5 6.5 6.5 6.5 6.5 6.5 6.5 6.5 6.5 6.5 6.5 6.5 6.5 6.5 6.5 6.5 6.5 6.5 6.5 6.5 6.5 6.5
7.8 8.8 8.4 8.1 8.2 7.8 7.4 7.6 7.4 6.0 5.7 4.3 4.3 5.0 5.0 4.8 5.1 5.5 6.5 6.5 6.5 6.5 6.5 6.5 6.5 6.5 6.5 6.5 6.5 6.5 6.5 6.5 6.5 6.5 6.0 6.5 6.5 6.5 6.5 6.4 6.3 6.5 6.5 6.5 6.5 6.5 6.5
8.4 8.2 8.5 8.3 7.8 7.4 7.0 7.3 7.3 6.4 5.6 4.4 5.4 6.4 6.3 5.7 5.6 6.6 6.5 6.5 6.5 6.9 6.7 6.5 6.5 6.5 6.5 6.5 6.5 6.5 6.5 6.5 6.5 6.5 6.2 6.5 6.5 6.5 6.5 6.5 6.5 6.5 6.5 6.5 6.5 6.5 6.5
8.5 8.4 8.4 8.1 7.5 7.6 6.8 7.2 7.0 6.7 5.6 4.7 6.2 6.5 5.8 6.1 6.4 5.6 6.5 6.5 5.7 6.5 6.6 6.5 6.5 6.5 6.5 6.5 6.5 6.5 6.5 6.5 5.5 5.9 6.5 6.5 6.5 6.5 6.5 6.5 6.5 6.5 6.5 6.5 6.5 6.5 6.5
8.6 8.8 8.5 8.6 8.3 8.1 6.8 7.4 7.2 6.5 5.5 6.0 6.4 6.4 5.9 6.3 6.5 6.5 6.5 6.5 6.6 6.5 6.5 6.5 6.5 6.5 6.5 6.5 6.5 6.5 6.5 5.8 5.6 6.5 6.5 6.5 6.5 6.5 6.5 6.5 6.5 6.5 6.5 6.5 6.5 6.5 6.5
8.5 8.8 8.6 7.8 7.5 8.2 6.7 7.2 7.5 6.5 5.7 5.9 6.2 6.5 6.3 6.8 5.6 6.5 6.5 6.5 6.5 6.6 6.5 6.5 6.5 6.3 6.5 6.5 6.5 6.5 6.5 6.5 5.7 6.1 3.4 4.6 6.5 6.5 6.5 6.5 6.5 6.5 6.5 6.5 6.5 6.5 6.5
8.3 8.4 8.6 7.7 7.8 8.0 6.9 7.1 8.0 6.4 5.9 5.6 5.5 6.5 6.4 6.5 6.5 6.5 6.5 6.5 6.5 6.5 6.4 6.3 6.5 6.5 6.5 6.5 6.5 6.5 6.5 6.5 6.4 4.2 6.3 6.5 6.5 6.5 6.5 6.5 6.5 6.5 6.5 6.5 6.5 6.5 6.5
8.5 8.4 8.5 7.9 7.7 7.4 6.7 6.6 8.0 6.5 6.2 6.0 6.1 5.6 5.6 5.9 6.6 6.5 6.5 6.5 6.5 6.5 6.5 6.5 6.5 6.5 6.5 6.5 6.5 6.5 6.5 6.5 6.5 6.5 6.5 6.5 6.5 6.5 6.5 6.5 6.5 6.5 6.5 6.5 6.5 6.5 6.5
8.4 8.4 8.4 8.4 8.2 7.0 6.4 5.7 8.1 7.4 6.7 6.5 6.4 4.4 5.0 5.8 6.5 6.5 6.5 6.5 6.5 6.5 6.3 6.4 6.3 6.5 6.5 6.5 5.5 5.5 4.8 4.3 5.9 6.5 6.5 6.5 6.5 6.5 6.5 6.5 6.5 6.5 6.5 6.5 6.5 6.5 6.5
8.4 8.4 8.5 8.4 8.6 7.4 6.7 6.0 7.7 7.8 6.5 6.9 7.7 5.4 5.5 6.5 6.5 6.5 6.5 6.5 6.5 6.5 6.5 6.1 5.6 6.5 5.5 3.8 3.2 2.6 3.5 5.0 6.0 6.4 5.9 6.5 6.5 6.5 6.5 6.5 6.5 6.5 6.5 6.5 6.5 6.5 6.5
8.3 8.3 8.1 8.0 7.9 7.9 6.9 6.2 7.8 7.8 6.5 7.1 5.6 6.5 5.0 6.5 6.5 6.4 6.5 6.5 6.2 6.1 6.4 6.2 5.6 4.6 3.1 4.7 6.5 6.5 6.5 6.5 6.5 6.5 6.5 6.6 6.5 6.5 6.5 6.5 6.5 6.5 6.5 6.5 6.5 6.5 6.5
8.2 8.3 8.5 8.3 7.6 7.0 7.0 7.1 7.9 7.6 6.6 6.4 5.8 5.5 5.9 6.6 6.4 6.8 6.5 6.2 6.5 6.5 6.5 6.3 4.6 2.4 4.1 6.5 6.5 6.5 6.5 6.5 6.5 6.5 6.5 6.5 6.5 6.5 6.5 6.5 6.5 6.5 6.5 5.9 6.4 6.5 6.2
8.2 7.9 7.1 7.2 7.4 7.0 7.4 7.9 7.5 7.0 6.8 6.2 6.4 7.0 5.6 6.6 5.5 5.8 6.4 6.4 6.2 5.9 6.5 6.1 5.4 4.7 4.6 6.5 6.5 6.5 6.5 6.5 6.5 6.5 6.5 6.5 6.5 6.5 6.5 6.5 6.5 6.5 6.2 6.3 6.5 6.5 5.6
7.7 7.7 8.0 6.9 7.6 7.7 7.3 6.9 6.2 6.3 6.5 6.1 6.5 5.1 5.5 6.5 5.0 6.2 6.0 5.7 5.9 4.0 6.5 5.3 5.9 6.2 6.3 6.5 6.5 6.5 6.5 6.5 6.5 6.5 6.5 6.5 6.5 6.5 6.5 6.5 6.5 5.7 6.4 6.5 5.9 5.2 4.6
7.7 7.9 7.2 7.1 7.8 7.3 6.9 6.5 6.1 6.3 5.8 6.2 6.7 6.3 6.1 6.1 6.2 5.5 5.7 3.0 5.0 3.8 2.4 3.9 5.0 5.2 4.1 6.5 6.5 6.5 6.5 6.5 6.5 6.5 6.5 6.5 6.5 6.5 6.5 6.5 5.8 4.8 5.6 4.8 4.4 4.8 5.4
Wind_Speed
15 13 12 13 14 15 19 18 17 15 13 12 11 12 14 15 15 17 18 18 18 17 15 15 14 15 8 3 9 8 9 10 7 4 7 9 8 6 7 5 8 6 8 2 13 9 10
16 15 14 14 15 15 16 18 17 16 14 12 11 12 13 15 16 17 18 19 18 16 15 14 13 14 2 5 5 11 9 7 6 6 8 9 7 7 5 7 5 5 10 8 11 11 8
18 17 16 16 16 16 15 16 19 17 16 14 12 12 13 15 16 18 19 19 19 16 14 13 9 5 5 15 4 12 10 6 7 10 6 10 8 4 7 7 9 3 7 5 4 10 3
20 18 17 16 16 18 18 15 18 19 18 15 14 12 13 13 16 18 20 21 19 16 14 11 6 4 7 7 15 12 11 9 10 10 9 8 6 5 3 5 8 3 5 4 4 12 4
21 20 18 17 18 18 18 17 16 19 18 16 15 14 13 13 15 18 21 23 19 15 11 8 2 4 9 16 5 10 8 11 8 4 1 1 3 2 5 2 4 3 4 4 1 21 9
23 22 20 19 18 18 18 15 14 17 18 16 15 14 14 12 14 17 23 28 11 10 6 5 8 5 7 5 6 8 10 11 4 5 2 1 1 1 3 2 3 3 3 5 7 12 20
25 24 22 21 19 19 16 15 16 16 17 17 16 15 13 12 12 14 11 5 2 1 3 8 6 5 13 6 5 4 4 8 4 4 3 4 3 1 3 2 8 8 13 10 7 9 10
27 27 24 23 22 19 17 14 15 16 16 17 16 15 12 10 11 10 3 3 6 2 8 14 19 19 19 9 6 13 6 5 6 5 4 3 3 4 11 10 11 9 12 1 8 5 7
28 27 27 25 24 22 19 17 15 15 16 17 16 15 10 7 8 2 5 9 9 9 4 9 14 11 7 8 8 14 4 7 3 4 1 4 3 4 8 13 15 7 4 2 3 4 2
31 26 26 28 26 24 21 19 16 15 16 18 16 15 10 3 1 3 4 9 17 3 3 6 7 8 7 9 6 11 11 8 3 6 4 3 5 3 9 16 19 8 13 2 0 3 2
32 30 27 28 28 26 23 21 18 15 16 19 18 16 13 14 4 4 5 15 7 3 4 5 9 6 9 9 1 5 13 9 7 6 4 3 5 0 6 14 11 7 11 6 5 2 4
31 32 31 29 29 28 25 24 21 18 16 19 20 18 13 3 3 10 19 14 3 1 7 4 8 7 8 10 7 5 5 2 4 7 8 8 5 5 5 7 8 3 2 4 5 3 2
31 29 30 29 29 29 28 25 21 19 17 18 21 21 14 6 4 12 3 3 1 4 6 8 11 10 9 6 8 8 7 5 4 3 3 3 8 3 4 10 6 6 4 3 5 5 4
35 34 29 29 28 29 30 27 22 21 19 19 23 21 9 10 10 13 1 3 8 11 10 5 10 8 9 6 9 11 5 6 8 7 3 6 3 2 5 4 4 5 3 4 4 1 5
35 32 31 31 30 28 31 28 25 22 20 19 19 5 3 6 16 2 2 9 8 6 8 4 9 10 9 11 6 9 8 7 9 12 6 4 3 4 7 5 4 1 4 6 5 2 3
36 33 29 29 30 29 31 30 27 24 21 22 5 5 6 11 13 2 5 13 6 14 8 8 8 8 8 10 10 6 8 8 8 12 7 2 4 3 7 5 8 5 4 2 3 2 3
36 37 30 30 32 27 29 34 29 25 24 28 5 4 5 21 5 4 12 15 15 21 12 5 4 5 8 7 11 7 6 7 8 4 10 6 4 2 6 2 11 2 3 2 4 5 5
35 33 32 31 33 29 24 35 31 28 29 19 5 6 10 14 7 4 13 11 12 21 14 10 5 1 1 8 5 7 5 8 4 8 5 8 5 4 14 20 14 6 6 6 5 5 3
35 36 36 35 33 33 21 36 35 33 37 7 6 5 10 14 11 12 9 14 19 17 16 6 4 3 3 4 5 8 8 6 4 5 6 2 2 3 1 4 3 3 5 4 3 4 4
33 34 34 33 37 38 21 37 39 36 38 5 5 7 5 9 5 19 15 15 21 18 20 20 11 7 5 5 5 5 3 1 5 4 2 7 0 5 6 6 4 4 5 6 4 4 4
33 32 31 28 33 35 26 36 40 38 39 6 4 9 7 11 16 11 17 12 18 15 16 12 12 8 8 5 5 0 4 3 3 1 2 4 4 1 4 5 5 4 1 5 4 5 6
32 32 30 31 31 26 28 24 37 38 36 9 5 6 6 3 15 17 14 22 25 22 13 19 15 10 9 7 8 7 5 5 5 1 3 1 3 3 1 5 7 4 6 6 6 6 5
32 32 32 29 29 27 25 29 38 37 26 7 3 3 7 9 14 17 20 17 21 19 15 19 10 7 7 9 4 4 3 9 9 9 7 6 4 3 2 4 6 6 7 5 6 4 3
32 29 28 27 27 26 25 31 36 37 32 2 5 2 3 5 13 16 22 19 23 24 17 10 15 8 6 7 8 8 11 11 9 4 5 6 5 3 3 3 1 8 2 5 5 5 8
31 29 27 28 27 26 26 27 35 35 35 9 2 2 2 2 12 15 22 20 18 19 15 11 7 5 9 6 4 4 5 6 2 4 3 4 5 2 4 4 5 8 2 3 4 4 5
31 28 25 26 26 24 25 28 33 31 29 10 10 2 1 2 9 18 21 17 15 15 7 1 3 7 7 4 4 5 5 6 4 2 8 6 5 5 2 4 6 6 4 4 3 1 5
29 27 26 24 26 28 29 30 30 28 26 10 4 6 1 3 4 11 17 22 12 5 4 4 1 6 4 2 3 3 4 8 5 9 4 3 3 5 2 2 7 5 6 1 6 6 4
29 28 24 23 25 26 26 25 24 24 24 15 9 2 1 2 8 8 10 12 14 7 6 6 5 2 1 4 3 3 3 4 4 8 8 7 6 3 3 2 6 6 4 6 5 4 7
29 25 23 21 23 23 21 21 24 25 25 18 6 3 3 3 5 13 7 3 13 9 7 1 6 8 6 4 2 3 3 2 3 2 2 2 7 6 7 6 5 9 12 6 8 7 5
Wind_Direction
281 283 285 284 289 291 248 249 253 256 259 266 279 290 298 305 309 310 313 315 315 315 315 313 320 327 342 266 252 261 126 140 146 185 224 238 261 253 251 270 293 217 247 86 128 148 126
278 282 282 279 278 283 274 248 250 254 257 260 269 282 294 302 306 308 312 311 314 311 310 309 320 326 237 269 262 159 161 138 173 178 248 252 256 281 278 307 6 51 66 66 106 122 104
266 269 276 273 269 270 274 261 251 254 255 257 263 274 288 299 303 306 309 309 309 307 304 305 319 307 260 245 254 305 309 218 178 188 223 260 280 296 336 353 328 81 71 68 51 103 69
255 258 263 273 266 268 269 271 250 247 251 254 258 266 279 291 299 305 307 305 304 302 297 299 308 287 252 253 260 264 260 267 246 220 217 262 328 344 63 324 345 73 64 44 150 87 44
248 251 256 261 266 262 265 267 257 244 245 249 254 262 275 287 297 305 306 302 294 292 268 280 287 215 265 310 219 242 234 245 211 175 277 218 10 300 329 292 337 17 77 287 307 131 183
249 247 250 255 261 258 257 262 261 248 244 245 248 257 270 282 295 306 311 294 274 319 235 222 256 311 263 247 238 223 229 232 197 126 132 168 197 15 330 110 216 250 216 246 218 201 179
246 246 244 251 253 252 243 259 262 255 247 242 243 250 264 279 293 313 337 334 22 337 249 211 188 245 293 310 327 293 279 184 188 145 198 210 75 262 257 212 240 243 239 235 255 190 174
248 243 241 241 248 248 245 244 257 254 248 243 236 243 254 274 296 313 312 262 260 79 296 238 243 255 262 292 299 306 235 209 179 164 259 48 126 259 302 315 284 255 282 309 343 233 157
251 244 237 235 239 241 244 243 245 253 246 241 232 236 241 268 309 302 225 240 295 1 299 280 221 222 227 228 242 264 235 223 223 145 359 113 206 253 300 312 311 328 336 304 197 324 10
243 245 242 230 233 235 239 241 233 249 245 235 227 225 219 198 336 237 236 253 237 206 322 266 198 218 206 234 252 229 251 183 205 157 97 197 201 240 298 282 291 220 265 199 168 81 228
236 239 241 235 227 229 232 235 225 233 241 228 219 215 200 195 329 298 302 343 166 71 337 210 156 183 178 194 157 231 239 242 223 156 125 245 150 20 269 262 213 204 221 193 195 199 352
237 235 235 235 227 223 226 227 221 226 240 220 214 206 183 187 226 251 298 320 60 79 250 236 151 162 174 218 253 278 196 68 170 171 174 205 148 188 227 250 243 92 19 55 84 143 186
231 241 236 232 229 221 221 219 216 217 230 222 207 193 174 210 222 343 202 322 114 210 282 191 160 165 204 185 234 263 166 172 196 167 175 213 224 201 183 267 23 57 50 359 9 10 240
224 233 238 234 231 225 217 214 215 214 221 217 202 181 221 235 278 349 299 215 217 193 242 45 153 179 187 221 208 247 204 198 225 222 179 159 329 348 10 332 181 58 107 153 149 202 281
231 224 230 233 228 225 215 209 210 206 214 209 170 170 208 230 241 349 246 214 197 222 213 242 159 171 199 230 226 209 205 221 203 213 194 158 353 334 340 340 305 147 84 269 131 304 57
237 230 226 234 226 222 222 206 206 200 199 174 163 160 217 188 187 159 225 222 236 252 310 310 216 176 180 209 232 196 212 219 238 197 170 138 119 352 263 317 320 166 193 184 334 157 261
221 235 230 227 235 219 221 206 198 196 179 172 171 164 201 167 128 213 218 220 232 269 284 257 310 211 199 192 214 201 235 248 217 149 110 140 127 293 24 238 238 250 260 268 153 143 172
218 224 223 229 233 216 223 208 191 187 173 177 172 192 155 146 171 217 226 209 236 260 269 271 256 271 271 219 233 188 221 219 198 137 142 189 132 151 224 244 255 178 195 180 123 265 191
216 219 222 223 229 221 226 211 193 179 177 171 179 167 173 158 195 217 221 217 235 250 258 273 229 212 274 270 177 198 217 309 57 110 144 130 242 77 271 286 330 232 234 220 175 98 195
213 215 215 215 227 212 216 206 191 179 183 196 157 182 156 209 214 196 202 209 219 245 261 262 261 233 280 284 256 238 118 11 20 88 186 99 347 149 189 216 230 270 216 263 174 114 208
207 209 208 205 209 211 212 206 194 182 184 200 207 192 175 192 211 214 192 193 206 229 222 247 266 220 211 238 249 6 125 102 70 322 119 117 168 278 295 313 335 296 352 331 316 227 150
202 202 201 200 202 204 215 213 193 182 182 219 189 184 153 152 187 205 202 207 201 218 231 235 232 242 225 197 191 197 165 144 172 146 148 233 204 128 318 338 20 14 332 312 301 301 325
194 194 192 197 192 194 217 228 194 179 174 199 220 282 153 190 185 188 209 202 212 210 232 238 211 232 225 227 207 202 183 162 159 150 184 151 133 87 234 357 9 350 248 237 245 275 246
186 188 194 194 190 196 208 223 200 180 185 220 217 260 136 198 188 202 192 204 201 225 223 231 212 214 223 122 60 26 26 46 100 92 154 151 122 101 175 41 35 242 295 118 114 50 63
181 180 184 186 189 195 203 223 190 188 187 211 288 325 217 236 192 193 197 200 212 231 237 227 266 316 152 82 91 66 346 18 355 114 47 83 108 96 135 185 290 316 143 152 133 38 34
179 184 185 194 189 199 203 201 184 190 187 197 234 348 323 222 221 195 188 196 204 217 212 90 310 52 335 118 98 150 186 185 170 93 33 57 85 122 132 146 203 236 155 41 64 62 13
175 172 174 191 205 189 183 182 181 182 181 189 230 206 359 278 263 187 195 201 200 159 144 131 161 37 15 25 91 124 233 178 147 154 165 43 9 145 134 181 287 243 137 108 96 221 73
170 173 175 198 174 168 169 172 172 169 174 190 203 144 315 283 305 304 201 193 203 173 144 180 84 92 328 213 129 208 120 212 113 161 168 159 141 197 104 101 276 177 78 133 193 64 79
168 167 169 176 168 170 171 166 164 168 178 187 208 167 147 280 272 318 306 322 211 150 125 151 162 158 190 98 57 98 56 45 121 194 179 129 172 175 163 210 229 73 100 82 86 91 60